N1972A KRME-KACK

Flight info

Callsign N1972A
Flight time 1h 43m
Altitude 5000
Route UCA ALB CEF PVD MVY ACK
Aircraft BE18/L-S/NC

Departure

Time 2026-04-26 19:24
Airport Griffiss International Airport (KRME)

Arrival

Time 2026-04-26 21:08
Airport Nantucket Memorial Airport (KACK)
Time Latitude Longitude Altitude Speed Heading
2026-04-26 19:13 43.22946 -75.40930 511 ft 0 kts 224°
2026-04-26 19:17 43.22948 -75.40929 511 ft 1 kts 224°
2026-04-26 19:17 43.22958 -75.40915 511 ft 3 kts 224°
2026-04-26 19:17 43.22965 -75.40906 511 ft 0 kts 224°
2026-04-26 19:18 43.22963 -75.40908 511 ft 1 kts 215°
2026-04-26 19:18 43.22955 -75.40905 511 ft 2 kts 132°
2026-04-26 19:18 43.22956 -75.40893 511 ft 2 kts 56°
2026-04-26 19:18 43.22988 -75.40859 511 ft 10 kts 39°
2026-04-26 19:19 43.23069 -75.40765 511 ft 23 kts 41°
2026-04-26 19:19 43.23054 -75.40638 511 ft 20 kts 134°
2026-04-26 19:19 43.22927 -75.40469 511 ft 31 kts 134°
2026-04-26 19:19 43.22754 -75.40225 511 ft 40 kts 134°
2026-04-26 19:20 43.22552 -75.39941 511 ft 42 kts 134°
2026-04-26 19:20 43.22427 -75.39764 511 ft 36 kts 134°
2026-04-26 19:20 43.22239 -75.39501 511 ft 23 kts 134°
2026-04-26 19:20 43.22149 -75.39374 511 ft 16 kts 134°
2026-04-26 19:21 43.22133 -75.39326 511 ft 1 kts 81°
2026-04-26 19:21 43.22137 -75.39305 511 ft 4 kts 64°
2026-04-26 19:21 43.22160 -75.39272 511 ft 6 kts 41°
2026-04-26 19:21 43.22191 -75.39235 511 ft 2 kts 41°
2026-04-26 19:22 43.22192 -75.39234 511 ft 0 kts 41°
2026-04-26 19:22 43.22199 -75.39225 511 ft 4 kts 41°
2026-04-26 19:22 43.22222 -75.39198 511 ft 5 kts 41°
2026-04-26 19:22 43.22251 -75.39166 511 ft 6 kts 26°
2026-04-26 19:23 43.22292 -75.39168 511 ft 7 kts 322°
2026-04-26 19:23 43.22316 -75.39199 511 ft 0 kts 315°
2026-04-26 19:23 43.22383 -75.39293 511 ft 45 kts 314°
2026-04-26 19:24 43.22772 -75.39839 546 ft 107 kts 314°
2026-04-26 19:24 43.23334 -75.40631 929 ft 119 kts 314°
2026-04-26 19:24 43.24125 -75.42656 1739 ft 144 kts 272°
2026-04-26 19:25 43.23766 -75.44014 1912 ft 162 kts 234°
2026-04-26 19:25 43.23188 -75.44673 2105 ft 165 kts 208°
2026-04-26 19:25 43.21760 -75.44801 2705 ft 153 kts 160°
2026-04-26 19:25 43.20967 -75.43861 3121 ft 153 kts 121°
2026-04-26 19:26 43.20558 -75.42596 3679 ft 136 kts 107°
2026-04-26 19:26 43.20268 -75.41457 4322 ft 122 kts 105°
2026-04-26 19:26 43.19937 -75.40357 4739 ft 131 kts 110°
2026-04-26 19:26 43.19531 -75.39198 5103 ft 137 kts 111°
2026-04-26 19:27 43.19105 -75.38033 5560 ft 137 kts 112°
2026-04-26 19:27 43.18632 -75.36893 5997 ft 141 kts 115°
2026-04-26 19:27 43.18066 -75.35745 6357 ft 150 kts 121°
2026-04-26 19:27 43.17457 -75.34576 6771 ft 150 kts 119°
2026-04-26 19:28 43.16877 -75.33417 7276 ft 144 kts 118°
2026-04-26 19:28 43.16304 -75.32298 7640 ft 152 kts 118°
2026-04-26 19:28 43.15670 -75.31033 7559 ft 168 kts 118°
2026-04-26 19:28 43.15012 -75.29706 7510 ft 170 kts 118°
2026-04-26 19:29 43.14351 -75.28370 7502 ft 169 kts 118°
2026-04-26 19:29 43.13699 -75.27048 7501 ft 166 kts 118°
2026-04-26 19:29 43.13064 -75.25743 7500 ft 164 kts 118°
2026-04-26 19:29 43.12449 -75.24453 7500 ft 161 kts 118°
2026-04-26 19:30 43.11861 -75.23164 7496 ft 161 kts 125°
2026-04-26 19:30 43.11371 -75.21753 7496 ft 168 kts 119°
2026-04-26 19:30 43.10893 -75.20271 7500 ft 174 kts 117°
2026-04-26 19:30 43.10553 -75.19260 7502 ft 177 kts 117°
2026-04-26 19:31 43.09811 -75.17216 7503 ft 183 kts 117°
2026-04-26 19:31 43.09211 -75.15676 7503 ft 185 kts 117°
2026-04-26 19:31 43.08585 -75.14130 7502 ft 187 kts 117°
2026-04-26 19:31 43.07917 -75.12605 7501 ft 188 kts 122°
2026-04-26 19:32 43.07166 -75.11165 7501 ft 188 kts 126°
2026-04-26 19:32 43.06383 -75.09708 7500 ft 189 kts 124°
2026-04-26 19:32 43.05574 -75.08301 7487 ft 189 kts 126°
2026-04-26 19:32 43.04758 -75.06908 7481 ft 188 kts 126°
2026-04-26 19:33 43.03942 -75.05512 7478 ft 188 kts 126°
2026-04-26 19:33 43.03132 -75.04109 7474 ft 188 kts 126°
2026-04-26 19:33 43.02332 -75.02699 7468 ft 189 kts 126°
2026-04-26 19:33 43.01538 -75.01265 7460 ft 189 kts 127°
2026-04-26 19:34 43.00762 -74.99812 7451 ft 189 kts 130°
2026-04-26 19:34 43.00060 -74.98319 7386 ft 186 kts 127°
2026-04-26 19:34 42.99395 -74.96834 7359 ft 180 kts 129°
2026-04-26 19:34 42.98671 -74.95472 7356 ft 176 kts 132°
2026-04-26 19:35 42.98002 -74.94085 7356 ft 175 kts 127°
2026-04-26 19:35 42.97430 -74.92612 7362 ft 176 kts 121°
2026-04-26 19:35 42.96942 -74.91073 7365 ft 177 kts 117°
2026-04-26 19:35 42.96523 -74.89489 7363 ft 178 kts 114°
2026-04-26 19:36 42.96151 -74.87878 7361 ft 178 kts 112°
2026-04-26 19:36 42.95919 -74.86796 7360 ft 178 kts 111°
2026-04-26 19:36 42.95471 -74.84625 7361 ft 179 kts 111°
2026-04-26 19:36 42.95135 -74.82997 7363 ft 179 kts 111°
2026-04-26 19:37 42.94792 -74.81370 7365 ft 179 kts 111°
2026-04-26 19:37 42.94440 -74.79744 7367 ft 179 kts 112°
2026-04-26 19:37 42.94080 -74.78120 7369 ft 180 kts 112°
2026-04-26 19:37 42.93712 -74.76495 7371 ft 180 kts 112°
2026-04-26 19:38 42.93346 -74.74868 7361 ft 179 kts 112°
2026-04-26 19:38 42.92983 -74.73246 7356 ft 179 kts 112°
2026-04-26 19:38 42.92621 -74.71630 7355 ft 178 kts 112°
2026-04-26 19:38 42.92257 -74.70019 7355 ft 178 kts 112°
2026-04-26 19:39 42.91892 -74.68411 7355 ft 178 kts 113°
2026-04-26 19:39 42.91530 -74.66818 7355 ft 178 kts 113°
2026-04-26 19:39 42.91147 -74.65211 7368 ft 174 kts 108°
2026-04-26 19:39 42.90655 -74.63747 7372 ft 167 kts 112°
2026-04-26 19:40 42.90149 -74.62351 7372 ft 163 kts 113°
2026-04-26 19:40 42.89650 -74.60983 7370 ft 160 kts 109°
2026-04-26 19:40 42.89442 -74.59528 7375 ft 156 kts 92°
2026-04-26 19:40 42.89469 -74.58063 7375 ft 155 kts 84°
2026-04-26 19:41 42.89607 -74.56617 7375 ft 154 kts 81°
2026-04-26 19:41 42.89791 -74.55178 7374 ft 154 kts 79°
2026-04-26 19:41 42.89973 -74.53743 7374 ft 154 kts 81°
2026-04-26 19:41 42.90075 -74.52790 7374 ft 154 kts 84°
2026-04-26 19:42 42.90231 -74.50889 7465 ft 150 kts 88°
2026-04-26 19:42 42.90249 -74.49461 7497 ft 150 kts 94°
2026-04-26 19:42 42.90152 -74.48039 7501 ft 152 kts 100°
2026-04-26 19:42 42.89933 -74.46638 7501 ft 152 kts 106°
2026-04-26 19:43 42.89596 -74.45261 7500 ft 153 kts 111°
2026-04-26 19:43 42.89163 -74.43945 7500 ft 154 kts 116°
2026-04-26 19:43 42.88630 -74.42668 7496 ft 156 kts 118°
2026-04-26 19:43 42.88030 -74.41427 7495 ft 158 kts 119°
2026-04-26 19:44 42.87452 -74.40172 7498 ft 156 kts 119°
2026-04-26 19:44 42.86920 -74.38890 7497 ft 155 kts 116°
2026-04-26 19:44 42.86440 -74.37580 7497 ft 155 kts 113°
2026-04-26 19:44 42.86022 -74.36236 7497 ft 154 kts 110°
2026-04-26 19:45 42.85674 -74.34857 7497 ft 154 kts 107°
2026-04-26 19:45 42.85399 -74.33451 7497 ft 154 kts 103°
2026-04-26 19:45 42.85186 -74.32025 7497 ft 154 kts 101°
2026-04-26 19:45 42.85020 -74.30584 7496 ft 154 kts 100°
2026-04-26 19:46 42.84884 -74.29133 7493 ft 156 kts 101°
2026-04-26 19:46 42.84768 -74.27653 7494 ft 158 kts 102°
2026-04-26 19:46 42.84624 -74.26169 7496 ft 159 kts 104°
2026-04-26 19:46 42.84422 -74.24688 7496 ft 159 kts 107°
2026-04-26 19:47 42.84154 -74.23229 7493 ft 159 kts 110°
2026-04-26 19:47 42.83942 -74.22269 7494 ft 159 kts 112°
2026-04-26 19:47 42.83455 -74.20376 7494 ft 159 kts 115°
2026-04-26 19:47 42.83056 -74.18971 7490 ft 159 kts 116°
2026-04-26 19:48 42.82650 -74.17566 7493 ft 160 kts 116°
2026-04-26 19:48 42.82260 -74.16149 7495 ft 161 kts 115°
2026-04-26 19:48 42.81893 -74.14713 7495 ft 161 kts 113°
2026-04-26 19:48 42.81557 -74.13260 7497 ft 162 kts 112°
2026-04-26 19:49 42.81249 -74.11779 7496 ft 163 kts 110°
2026-04-26 19:49 42.80962 -74.10276 7499 ft 165 kts 110°
2026-04-26 19:49 42.80686 -74.08763 7499 ft 166 kts 110°
2026-04-26 19:49 42.80407 -74.07239 7499 ft 167 kts 110°
2026-04-26 19:50 42.80110 -74.05707 7503 ft 167 kts 111°
2026-04-26 19:50 42.79800 -74.04186 7499 ft 168 kts 111°
2026-04-26 19:50 42.79496 -74.02645 7499 ft 169 kts 111°
2026-04-26 19:50 42.79156 -74.01114 7500 ft 170 kts 114°
2026-04-26 19:51 42.78770 -73.99587 7501 ft 172 kts 115°
2026-04-26 19:51 42.78368 -73.98050 7501 ft 174 kts 115°
2026-04-26 19:51 42.77957 -73.96500 7535 ft 177 kts 115°
2026-04-26 19:51 42.77518 -73.94877 7489 ft 188 kts 115°
2026-04-26 19:52 42.77065 -73.93221 7482 ft 184 kts 115°
2026-04-26 19:52 42.76625 -73.91609 7497 ft 181 kts 115°
2026-04-26 19:52 42.76188 -73.90008 7500 ft 180 kts 115°
2026-04-26 19:52 42.75755 -73.88413 7500 ft 180 kts 115°
2026-04-26 19:53 42.75323 -73.86822 7501 ft 179 kts 115°
2026-04-26 19:53 42.75004 -73.85640 7501 ft 179 kts 115°
2026-04-26 19:53 42.74718 -73.84579 7501 ft 179 kts 115°
2026-04-26 19:53 42.74404 -73.83416 7502 ft 179 kts 115°
2026-04-26 19:54 42.73953 -73.81875 7535 ft 170 kts 113°
2026-04-26 19:54 42.73451 -73.80453 7511 ft 165 kts 114°
2026-04-26 19:54 42.72925 -73.79081 7503 ft 163 kts 115°
2026-04-26 19:54 42.72387 -73.77741 7504 ft 162 kts 115°
2026-04-26 19:55 42.71837 -73.76411 7505 ft 162 kts 115°
2026-04-26 19:55 42.71282 -73.75085 7510 ft 161 kts 116°
2026-04-26 19:55 42.70746 -73.73764 7509 ft 160 kts 115°
2026-04-26 19:55 42.70208 -73.72436 7510 ft 160 kts 115°
2026-04-26 19:56 42.69669 -73.71115 7509 ft 160 kts 115°
2026-04-26 19:56 42.69115 -73.69793 7515 ft 162 kts 115°
2026-04-26 19:56 42.68550 -73.68470 7516 ft 163 kts 115°
2026-04-26 19:56 42.68015 -73.67109 7513 ft 162 kts 107°
2026-04-26 19:57 42.67800 -73.65648 7519 ft 159 kts 93°
2026-04-26 19:57 42.67642 -73.64152 7520 ft 159 kts 99°
2026-04-26 19:57 42.67330 -73.62721 7518 ft 159 kts 109°
2026-04-26 19:57 42.66870 -73.61358 7521 ft 159 kts 116°
2026-04-26 19:58 42.66327 -73.60065 7523 ft 158 kts 121°
2026-04-26 19:58 42.65754 -73.58773 7506 ft 164 kts 124°
2026-04-26 19:58 42.65167 -73.57414 7527 ft 170 kts 124°
2026-04-26 19:58 42.64548 -73.56025 7530 ft 174 kts 125°
2026-04-26 19:59 42.63901 -73.54620 7530 ft 177 kts 125°
2026-04-26 19:59 42.63249 -73.53217 7529 ft 179 kts 125°
2026-04-26 19:59 42.62584 -73.51770 7529 ft 180 kts 125°
2026-04-26 19:59 42.61937 -73.50320 7528 ft 180 kts 124°
2026-04-26 20:00 42.61298 -73.48859 7528 ft 180 kts 123°
2026-04-26 20:00 42.60666 -73.47392 7528 ft 181 kts 123°
2026-04-26 20:00 42.60043 -73.45918 7528 ft 180 kts 123°
2026-04-26 20:00 42.59428 -73.44442 7528 ft 180 kts 123°
2026-04-26 20:01 42.58818 -73.42965 7528 ft 179 kts 123°
2026-04-26 20:01 42.58210 -73.41493 7527 ft 179 kts 123°
2026-04-26 20:01 42.57604 -73.40029 7527 ft 178 kts 123°
2026-04-26 20:01 42.56998 -73.38577 7526 ft 177 kts 124°
2026-04-26 20:02 42.56392 -73.37139 7526 ft 176 kts 124°
2026-04-26 20:02 42.55784 -73.35714 7525 ft 175 kts 124°
2026-04-26 20:02 42.55173 -73.34299 7523 ft 174 kts 124°
2026-04-26 20:02 42.54764 -73.33360 7521 ft 173 kts 124°
2026-04-26 20:03 42.53945 -73.31493 7522 ft 174 kts 125°
2026-04-26 20:03 42.53268 -73.30110 7519 ft 178 kts 123°
2026-04-26 20:03 42.52552 -73.28729 7522 ft 181 kts 123°
2026-04-26 20:03 42.51844 -73.27317 7521 ft 182 kts 121°
2026-04-26 20:04 42.51162 -73.25870 7521 ft 183 kts 120°
2026-04-26 20:04 42.50510 -73.24398 7521 ft 183 kts 118°
2026-04-26 20:04 42.49904 -73.22882 7520 ft 184 kts 117°
2026-04-26 20:04 42.49330 -73.21337 7521 ft 184 kts 116°
2026-04-26 20:05 42.48762 -73.19783 7520 ft 185 kts 115°
2026-04-26 20:05 42.48193 -73.18228 7520 ft 185 kts 116°
2026-04-26 20:05 42.47619 -73.16675 7520 ft 185 kts 116°
2026-04-26 20:05 42.47038 -73.15126 7520 ft 185 kts 117°
2026-04-26 20:06 42.46448 -73.13585 7520 ft 185 kts 118°
2026-04-26 20:06 42.45847 -73.12049 7521 ft 184 kts 120°
2026-04-26 20:06 42.45251 -73.10526 7521 ft 183 kts 120°
2026-04-26 20:06 42.44589 -73.09058 7518 ft 183 kts 128°
2026-04-26 20:07 42.43720 -73.07809 7523 ft 183 kts 139°
2026-04-26 20:07 42.42766 -73.06680 7521 ft 183 kts 142°
2026-04-26 20:07 42.41793 -73.05578 7521 ft 183 kts 142°
2026-04-26 20:07 42.40820 -73.04483 7520 ft 183 kts 142°
2026-04-26 20:08 42.39833 -73.03403 7521 ft 183 kts 141°
2026-04-26 20:08 42.38813 -73.02376 7525 ft 183 kts 143°
2026-04-26 20:08 42.37760 -73.01429 7527 ft 184 kts 146°
2026-04-26 20:08 42.36892 -73.00194 7521 ft 180 kts 115°
2026-04-26 20:09 42.36547 -72.98595 7533 ft 178 kts 97°
2026-04-26 20:09 42.36352 -72.96944 7526 ft 178 kts 95°
2026-04-26 20:09 42.36205 -72.95278 7528 ft 180 kts 94°
2026-04-26 20:09 42.36095 -72.93584 7532 ft 182 kts 95°
2026-04-26 20:10 42.35956 -72.91894 7533 ft 183 kts 98°
2026-04-26 20:10 42.35727 -72.90205 7535 ft 182 kts 105°
2026-04-26 20:10 42.35355 -72.88577 7519 ft 181 kts 109°
2026-04-26 20:10 42.34757 -72.87115 7501 ft 176 kts 120°
2026-04-26 20:11 42.34024 -72.85795 7343 ft 176 kts 126°
2026-04-26 20:11 42.33222 -72.84523 7061 ft 181 kts 127°
2026-04-26 20:11 42.32405 -72.83237 6834 ft 180 kts 126°
2026-04-26 20:12 42.30960 -72.80591 6525 ft 172 kts 119°
2026-04-26 20:12 42.30360 -72.79198 6319 ft 172 kts 115°
2026-04-26 20:12 42.29827 -72.77758 6120 ft 171 kts 112°
2026-04-26 20:12 42.29337 -72.76303 5948 ft 169 kts 111°
2026-04-26 20:13 42.28860 -72.74864 5779 ft 168 kts 112°
2026-04-26 20:13 42.28366 -72.73445 5608 ft 167 kts 114°
2026-04-26 20:13 42.27851 -72.72055 5479 ft 164 kts 117°
2026-04-26 20:13 42.27337 -72.70697 5494 ft 162 kts 119°
2026-04-26 20:14 42.26788 -72.69386 5499 ft 160 kts 121°
2026-04-26 20:14 42.26205 -72.68108 5499 ft 160 kts 123°
2026-04-26 20:14 42.25615 -72.66842 5499 ft 160 kts 122°
2026-04-26 20:14 42.25011 -72.65543 5537 ft 170 kts 120°
2026-04-26 20:15 42.24410 -72.64130 5438 ft 174 kts 118°
2026-04-26 20:15 42.23884 -72.62712 5476 ft 166 kts 117°
2026-04-26 20:15 42.23373 -72.61340 5487 ft 162 kts 119°
2026-04-26 20:15 42.22826 -72.60019 5489 ft 161 kts 121°
2026-04-26 20:16 42.22258 -72.58721 5489 ft 161 kts 121°
2026-04-26 20:16 42.21710 -72.57414 5489 ft 160 kts 120°
2026-04-26 20:16 42.21183 -72.56092 5489 ft 160 kts 120°
2026-04-26 20:16 42.20640 -72.54784 5489 ft 160 kts 121°
2026-04-26 20:17 42.20103 -72.53471 5487 ft 161 kts 120°
2026-04-26 20:17 42.19536 -72.52179 5486 ft 160 kts 124°
2026-04-26 20:17 42.18983 -72.50882 5482 ft 161 kts 110°
2026-04-26 20:17 42.18809 -72.49907 5495 ft 161 kts 105°
2026-04-26 20:18 42.18021 -72.48265 5498 ft 159 kts 137°
2026-04-26 20:18 42.17328 -72.47122 5489 ft 159 kts 116°
2026-04-26 20:18 42.16965 -72.45721 5496 ft 159 kts 110°
2026-04-26 20:18 42.16496 -72.44375 5492 ft 159 kts 120°
2026-04-26 20:19 42.15894 -72.43124 5492 ft 159 kts 123°
2026-04-26 20:19 42.15299 -72.41869 5492 ft 159 kts 120°
2026-04-26 20:19 42.14746 -72.40579 5495 ft 159 kts 118°
2026-04-26 20:19 42.14223 -72.39268 5496 ft 159 kts 117°
2026-04-26 20:20 42.13705 -72.37950 5495 ft 159 kts 117°
2026-04-26 20:20 42.13181 -72.36640 5495 ft 159 kts 118°
2026-04-26 20:20 42.12646 -72.35333 5494 ft 159 kts 118°
2026-04-26 20:20 42.12107 -72.34031 5494 ft 159 kts 118°
2026-04-26 20:21 42.11568 -72.32732 5494 ft 159 kts 118°
2026-04-26 20:21 42.11040 -72.31418 5495 ft 160 kts 119°
2026-04-26 20:21 42.10521 -72.30105 5495 ft 160 kts 119°
2026-04-26 20:21 42.09988 -72.28789 5495 ft 160 kts 120°
2026-04-26 20:22 42.09446 -72.27485 5495 ft 160 kts 121°
2026-04-26 20:22 42.08896 -72.26186 5495 ft 160 kts 121°
2026-04-26 20:22 42.08322 -72.24906 5494 ft 160 kts 127°
2026-04-26 20:22 42.07595 -72.23783 5497 ft 159 kts 135°
2026-04-26 20:23 42.06794 -72.22759 5496 ft 159 kts 138°
2026-04-26 20:23 42.05955 -72.21785 5495 ft 159 kts 140°
2026-04-26 20:23 42.05105 -72.20836 5495 ft 159 kts 140°
2026-04-26 20:23 42.04258 -72.19875 5495 ft 159 kts 139°
2026-04-26 20:24 42.03436 -72.18881 5495 ft 159 kts 137°
2026-04-26 20:24 42.02641 -72.17844 5499 ft 159 kts 133°
2026-04-26 20:24 42.01887 -72.16755 5501 ft 159 kts 129°
2026-04-26 20:24 42.01196 -72.15591 5502 ft 159 kts 124°
2026-04-26 20:25 42.00565 -72.14360 5508 ft 161 kts 119°
2026-04-26 20:25 42.00179 -72.13500 5511 ft 162 kts 116°
2026-04-26 20:25 41.99512 -72.11701 5512 ft 162 kts 110°
2026-04-26 20:25 41.99099 -72.10296 5511 ft 162 kts 106°
2026-04-26 20:26 41.98745 -72.08864 5511 ft 162 kts 104°
2026-04-26 20:26 41.98429 -72.07419 5511 ft 161 kts 102°
2026-04-26 20:26 41.98130 -72.05970 5510 ft 161 kts 102°
2026-04-26 20:26 41.97829 -72.04526 5509 ft 161 kts 103°
2026-04-26 20:27 41.97498 -72.03093 5509 ft 161 kts 105°
2026-04-26 20:27 41.97119 -72.01679 5510 ft 161 kts 108°
2026-04-26 20:27 41.96683 -72.00291 5510 ft 162 kts 111°
2026-04-26 20:27 41.96188 -71.98936 5510 ft 162 kts 115°
2026-04-26 20:28 41.95637 -71.97617 5511 ft 162 kts 117°
2026-04-26 20:28 41.95039 -71.96332 5512 ft 163 kts 120°
2026-04-26 20:28 41.94406 -71.95074 5513 ft 163 kts 122°
2026-04-26 20:28 41.93756 -71.93833 5519 ft 163 kts 122°
2026-04-26 20:29 41.93101 -71.92601 5521 ft 163 kts 123°
2026-04-26 20:29 41.92450 -71.91363 5521 ft 163 kts 122°
2026-04-26 20:29 41.91814 -71.90113 5519 ft 163 kts 121°
2026-04-26 20:29 41.91201 -71.88840 5518 ft 162 kts 119°
2026-04-26 20:30 41.90622 -71.87554 5519 ft 162 kts 117°
2026-04-26 20:30 41.90351 -71.86920 5519 ft 162 kts 117°
2026-04-26 20:30 41.89879 -71.85758 5519 ft 162 kts 115°
2026-04-26 20:30 41.89364 -71.84419 5519 ft 162 kts 114°
2026-04-26 20:31 41.88867 -71.83072 5519 ft 161 kts 114°
2026-04-26 20:31 41.88378 -71.81720 5519 ft 161 kts 113°
2026-04-26 20:31 41.87888 -71.80367 5518 ft 161 kts 114°
2026-04-26 20:31 41.87388 -71.79021 5518 ft 162 kts 114°
2026-04-26 20:32 41.86873 -71.77685 5518 ft 162 kts 115°
2026-04-26 20:32 41.86340 -71.76359 5518 ft 162 kts 116°
2026-04-26 20:32 41.85793 -71.75046 5518 ft 162 kts 117°
2026-04-26 20:32 41.85234 -71.73742 5517 ft 162 kts 117°
2026-04-26 20:33 41.84671 -71.72441 5517 ft 162 kts 117°
2026-04-26 20:33 41.84100 -71.71134 5522 ft 162 kts 117°
2026-04-26 20:33 41.83525 -71.69830 5511 ft 164 kts 117°
2026-04-26 20:33 41.82937 -71.68524 5505 ft 165 kts 117°
2026-04-26 20:34 41.82336 -71.67207 5505 ft 166 kts 117°
2026-04-26 20:34 41.81735 -71.65891 5505 ft 166 kts 117°
2026-04-26 20:34 41.81133 -71.64576 5505 ft 166 kts 117°
2026-04-26 20:34 41.80531 -71.63259 5505 ft 166 kts 117°
2026-04-26 20:35 41.79930 -71.61943 5505 ft 166 kts 117°
2026-04-26 20:35 41.79327 -71.60625 5505 ft 166 kts 117°
2026-04-26 20:35 41.78725 -71.59304 5505 ft 166 kts 117°
2026-04-26 20:35 41.78125 -71.57985 5505 ft 166 kts 117°
2026-04-26 20:36 41.77525 -71.56665 5505 ft 166 kts 117°
2026-04-26 20:36 41.76925 -71.55347 5505 ft 166 kts 117°
2026-04-26 20:36 41.76325 -71.54028 5505 ft 166 kts 117°
2026-04-26 20:36 41.75724 -71.52709 5505 ft 166 kts 117°
2026-04-26 20:37 41.75123 -71.51388 5505 ft 166 kts 117°
2026-04-26 20:37 41.74525 -71.50073 5506 ft 166 kts 118°
2026-04-26 20:37 41.73931 -71.48758 5504 ft 165 kts 117°
2026-04-26 20:37 41.73336 -71.47446 5503 ft 165 kts 117°
2026-04-26 20:38 41.72735 -71.46134 5505 ft 166 kts 117°
2026-04-26 20:38 41.72132 -71.44822 5505 ft 166 kts 117°
2026-04-26 20:38 41.71525 -71.43504 5505 ft 166 kts 117°
2026-04-26 20:38 41.70920 -71.42190 5505 ft 167 kts 117°
2026-04-26 20:39 41.70314 -71.40875 5505 ft 167 kts 117°
2026-04-26 20:39 41.69705 -71.39554 5504 ft 167 kts 117°
2026-04-26 20:39 41.69099 -71.38237 5501 ft 167 kts 117°
2026-04-26 20:39 41.68493 -71.36921 5500 ft 166 kts 117°
2026-04-26 20:40 41.67888 -71.35607 5500 ft 167 kts 117°
2026-04-26 20:40 41.67307 -71.34267 5499 ft 166 kts 112°
2026-04-26 20:40 41.66898 -71.32839 5501 ft 164 kts 104°
2026-04-26 20:40 41.66591 -71.31374 5501 ft 164 kts 100°
2026-04-26 20:41 41.66328 -71.29895 5500 ft 164 kts 99°
2026-04-26 20:41 41.66077 -71.28419 5500 ft 164 kts 99°
2026-04-26 20:41 41.65817 -71.26947 5501 ft 162 kts 101°
2026-04-26 20:41 41.65531 -71.25506 5499 ft 160 kts 103°
2026-04-26 20:42 41.65201 -71.24092 5500 ft 159 kts 107°
2026-04-26 20:42 41.64821 -71.22714 5500 ft 158 kts 110°
2026-04-26 20:42 41.64373 -71.21381 5500 ft 158 kts 114°
2026-04-26 20:42 41.63857 -71.20092 5500 ft 158 kts 117°
2026-04-26 20:43 41.63280 -71.18845 5500 ft 158 kts 120°
2026-04-26 20:43 41.62657 -71.17635 5500 ft 158 kts 122°
2026-04-26 20:43 41.62006 -71.16449 5500 ft 159 kts 124°
2026-04-26 20:43 41.61344 -71.15275 5500 ft 159 kts 124°
2026-04-26 20:44 41.60686 -71.14095 5500 ft 159 kts 123°
2026-04-26 20:44 41.60046 -71.12897 5500 ft 159 kts 122°
2026-04-26 20:44 41.59444 -71.11695 5500 ft 159 kts 120°
2026-04-26 20:44 41.58859 -71.10422 5500 ft 158 kts 117°
2026-04-26 20:45 41.58324 -71.09141 5500 ft 158 kts 115°
2026-04-26 20:45 41.57827 -71.07837 5500 ft 158 kts 113°
2026-04-26 20:45 41.57360 -71.06514 5500 ft 158 kts 112°
2026-04-26 20:45 41.56913 -71.05177 5500 ft 158 kts 111°
2026-04-26 20:46 41.56479 -71.03838 5500 ft 157 kts 111°
2026-04-26 20:46 41.56044 -71.02502 5500 ft 157 kts 111°
2026-04-26 20:46 41.55593 -71.01171 5499 ft 158 kts 112°
2026-04-26 20:46 41.55112 -70.99851 5500 ft 159 kts 113°
2026-04-26 20:47 41.54604 -70.98538 5500 ft 160 kts 114°
2026-04-26 20:47 41.54254 -70.97670 5500 ft 160 kts 115°
2026-04-26 20:47 41.53529 -70.95937 5500 ft 161 kts 116°
2026-04-26 20:47 41.52975 -70.94640 5500 ft 161 kts 116°
2026-04-26 20:48 41.52422 -70.93346 5500 ft 161 kts 116°
2026-04-26 20:48 41.51873 -70.92042 5500 ft 161 kts 116°
2026-04-26 20:48 41.51334 -70.90734 5500 ft 161 kts 115°
2026-04-26 20:48 41.50806 -70.89421 5499 ft 161 kts 114°
2026-04-26 20:49 41.50280 -70.88099 5500 ft 162 kts 114°
2026-04-26 20:49 41.49757 -70.86770 5500 ft 163 kts 114°
2026-04-26 20:49 41.49237 -70.85434 5500 ft 163 kts 114°
2026-04-26 20:49 41.48718 -70.84095 5500 ft 163 kts 114°
2026-04-26 20:50 41.48202 -70.82755 5502 ft 162 kts 114°
2026-04-26 20:50 41.47703 -70.81426 5500 ft 160 kts 115°
2026-04-26 20:50 41.47196 -70.80110 5500 ft 160 kts 115°
2026-04-26 20:50 41.46673 -70.78808 5500 ft 159 kts 116°
2026-04-26 20:51 41.46139 -70.77518 5498 ft 160 kts 117°
2026-04-26 20:51 41.45595 -70.76214 5501 ft 162 kts 117°
2026-04-26 20:51 41.45054 -70.74900 5501 ft 162 kts 116°
2026-04-26 20:51 41.44521 -70.73574 5501 ft 163 kts 116°
2026-04-26 20:52 41.43994 -70.72240 5501 ft 163 kts 116°
2026-04-26 20:52 41.43468 -70.70904 5501 ft 163 kts 116°
2026-04-26 20:52 41.42940 -70.69573 5501 ft 163 kts 116°
2026-04-26 20:52 41.42406 -70.68242 5501 ft 163 kts 116°
2026-04-26 20:53 41.41872 -70.66910 5501 ft 163 kts 116°
2026-04-26 20:53 41.41342 -70.65580 5501 ft 163 kts 116°
2026-04-26 20:53 41.40811 -70.64248 5501 ft 163 kts 116°
2026-04-26 20:53 41.40277 -70.62915 5501 ft 163 kts 116°
2026-04-26 20:54 41.39746 -70.61584 5501 ft 163 kts 116°
2026-04-26 20:54 41.39209 -70.60254 5501 ft 163 kts 116°
2026-04-26 20:54 41.38668 -70.58925 5501 ft 163 kts 116°
2026-04-26 20:54 41.38130 -70.57605 5502 ft 163 kts 116°
2026-04-26 20:55 41.37600 -70.56271 5503 ft 162 kts 117°
2026-04-26 20:55 41.37112 -70.54921 5502 ft 162 kts 116°
2026-04-26 20:55 41.36639 -70.53604 5495 ft 153 kts 116°
2026-04-26 20:55 41.36187 -70.52355 5389 ft 150 kts 116°
2026-04-26 20:56 41.35719 -70.51082 5154 ft 156 kts 116°
2026-04-26 20:56 41.35232 -70.49780 4969 ft 157 kts 116°
2026-04-26 20:56 41.34741 -70.48503 4858 ft 154 kts 116°
2026-04-26 20:56 41.34246 -70.47249 4727 ft 153 kts 116°
2026-04-26 20:57 41.33750 -70.45999 4565 ft 152 kts 116°
2026-04-26 20:57 41.33252 -70.44758 4363 ft 153 kts 116°
2026-04-26 20:57 41.32750 -70.43516 4156 ft 153 kts 116°
2026-04-26 20:57 41.32247 -70.42284 3972 ft 151 kts 116°
2026-04-26 20:58 41.31748 -70.41070 3797 ft 149 kts 116°
2026-04-26 20:58 41.31252 -70.39869 3612 ft 148 kts 116°
2026-04-26 20:58 41.30756 -70.38676 3424 ft 147 kts 116°
2026-04-26 20:58 41.30254 -70.37492 3230 ft 147 kts 116°
2026-04-26 20:59 41.29748 -70.36315 3043 ft 146 kts 116°
2026-04-26 20:59 41.29246 -70.35150 2866 ft 145 kts 116°
2026-04-26 20:59 41.28743 -70.33997 2697 ft 144 kts 116°
2026-04-26 20:59 41.28241 -70.32853 2530 ft 143 kts 116°
2026-04-26 21:00 41.27747 -70.31709 2362 ft 142 kts 116°
2026-04-26 21:00 41.27252 -70.30573 2157 ft 144 kts 116°
2026-04-26 21:00 41.26760 -70.29408 1926 ft 144 kts 115°
2026-04-26 21:00 41.26268 -70.28266 1753 ft 142 kts 116°
2026-04-26 21:01 41.25777 -70.27139 1557 ft 142 kts 116°
2026-04-26 21:01 41.25282 -70.26000 1331 ft 143 kts 116°
2026-04-26 21:01 41.24787 -70.24855 1115 ft 143 kts 116°
2026-04-26 21:01 41.24294 -70.23714 965 ft 140 kts 116°
2026-04-26 21:02 41.23829 -70.22648 983 ft 128 kts 116°
2026-04-26 21:02 41.23392 -70.21653 992 ft 122 kts 116°
2026-04-26 21:02 41.22971 -70.20701 995 ft 118 kts 116°
2026-04-26 21:02 41.22563 -70.19782 1002 ft 112 kts 116°
2026-04-26 21:03 41.22180 -70.18936 993 ft 103 kts 116°
2026-04-26 21:03 41.21817 -70.18143 989 ft 98 kts 116°
2026-04-26 21:03 41.21471 -70.17391 992 ft 94 kts 116°
2026-04-26 21:03 41.21130 -70.16655 994 ft 92 kts 116°
2026-04-26 21:04 41.20792 -70.15929 974 ft 93 kts 116°
2026-04-26 21:04 41.20456 -70.15199 837 ft 96 kts 116°
2026-04-26 21:04 41.20175 -70.14443 772 ft 90 kts 107°
2026-04-26 21:04 41.20046 -70.13664 724 ft 84 kts 90°
2026-04-26 21:05 41.20178 -70.12933 640 ft 84 kts 62°
2026-04-26 21:05 41.20510 -70.12318 636 ft 80 kts 48°
2026-04-26 21:05 41.20938 -70.11813 637 ft 85 kts 40°
2026-04-26 21:05 41.21407 -70.11352 686 ft 84 kts 35°
2026-04-26 21:06 41.21886 -70.10907 743 ft 84 kts 38°
2026-04-26 21:06 41.22345 -70.10409 775 ft 86 kts 43°
2026-04-26 21:06 41.22757 -70.09884 748 ft 78 kts 47°
2026-04-26 21:06 41.23124 -70.09374 637 ft 76 kts 47°
2026-04-26 21:07 41.23486 -70.08867 477 ft 76 kts 45°
2026-04-26 21:07 41.23863 -70.08364 343 ft 77 kts 45°
2026-04-26 21:07 41.24241 -70.07862 230 ft 77 kts 45°
2026-04-26 21:07 41.24604 -70.07382 106 ft 69 kts 45°
2026-04-26 21:08 41.24905 -70.06980 55 ft 49 kts 45°
2026-04-26 21:08 41.25086 -70.06738 55 ft 27 kts 45°
2026-04-26 21:08 41.25179 -70.06635 55 ft 1 kts
2026-04-26 21:08 41.25202 -70.06653 55 ft 6 kts 317°
2026-04-26 21:09 41.25215 -70.06668 55 ft 0 kts 317°
2026-04-26 21:09 41.25221 -70.06675 55 ft 3 kts 319°
2026-04-26 21:10 41.25251 -70.06688 55 ft 5 kts 14°
2026-04-26 21:10 41.25307 -70.06674 55 ft 10 kts
2026-04-26 21:10 41.25355 -70.06641 55 ft 9 kts 45°
2026-04-26 21:10 41.25412 -70.06562 55 ft 14 kts 45°
2026-04-26 21:11 41.25482 -70.06470 55 ft 14 kts 45°
2026-04-26 21:11 41.25545 -70.06386 55 ft 11 kts 45°
2026-04-26 21:11 41.25595 -70.06318 55 ft 10 kts 46°
2026-04-26 21:11 41.25641 -70.06264 55 ft 5 kts 19°
2026-04-26 21:12 41.25693 -70.06277 55 ft 9 kts 340°
2026-04-26 21:12 41.25722 -70.06306 55 ft 4 kts 314°
2026-04-26 21:12 41.25733 -70.06320 55 ft 0 kts 316°